TimeMST,TemperatureF,Dew PointF,Humidity,Sea Level PressureIn,VisibilityMPH,Wind Direction,Wind SpeedMPH,Gust SpeedMPH,PrecipitationIn,Events,Conditions,WindDirDegrees,DateUTC
12:00 AM,-43.6,-50.8,67,30.49,7.0,NE,6.9,-,N/A,Fog,Clear,50,2013-02-17 07:00:00
1:00 AM,-43.6,-50.8,67,30.50,7.0,NE,6.9,-,N/A,Fog,Clear,50,2013-02-17 08:00:00
3:00 AM,-43.6,-50.8,67,30.50,7.0,NE,3.5,-,N/A,Fog,Clear,50,2013-02-17 10:00:00
4:00 AM,-43.6,-50.8,67,30.51,7.0,NE,3.5,-,N/A,Fog,Clear,50,2013-02-17 11:00:00
5:00 AM,-44,-51,47,30.51,7,NE,3.5,,,Fog,Light Fog,50,2013-02-17 12:00:00
5:00 AM,-43.6,-50.8,67,30.51,7.0,NE,4.6,-,N/A,Fog,Clear,50,2013-02-17 12:00:00
5:25 AM,-9999,-9999,N/A,-9999,2.0,NE,4.6,-,N/A,,Clear,40,2013-02-17 12:25:00
6:00 AM,-45.4,-50.8,74,30.52,2.0,ENE,4.6,-,N/A,,Clear,60,2013-02-17 13:00:00
7:00 AM,-43.6,-50.8,67,30.52,2.0,NE,3.5,-,N/A,,Clear,50,2013-02-17 14:00:00
8:00 AM,-43.6,-50.8,67,30.53,2.5,NE,5.8,-,N/A,,Clear,40,2013-02-17 15:00:00
8:39 AM,-9999,-9999,N/A,-9999,2.5,NE,4.6,-,N/A,,Partly Cloudy,40,2013-02-17 15:39:00
9:00 AM,-43.6,-50.8,67,30.52,2.5,NE,5.8,-,N/A,,Partly Cloudy,40,2013-02-17 16:00:00
10:00 AM,-43.6,-50.8,67,30.53,2.0,NE,3.5,-,N/A,,Partly Cloudy,50,2013-02-17 17:00:00
11:00 AM,-43,-49,53,30.53,1,ENE,2.3,,,,Mist,70,2013-02-17 18:00:00
11:00 AM,-41.8,-49.0,67,30.53,1.5,East,2.3,-,N/A,,Partly Cloudy,80,2013-02-17 18:00:00
11:37 AM,-9999,-9999,N/A,-9999,0.6,Calm,Calm,-,N/A,,Partly Cloudy,0,2013-02-17 18:37:00
11:55 AM,-9999,-9999,N/A,-9999,1.0,NE,2.3,-,N/A,,Partly Cloudy,40,2013-02-17 18:55:00
12:00 PM,-41.8,-49.0,67,30.53,1.0,NE,3.5,-,N/A,,Partly Cloudy,40,2013-02-17 19:00:00
12:29 PM,-9999,-9999,N/A,-9999,1.5,NNE,5.8,-,N/A,,Partly Cloudy,30,2013-02-17 19:29:00
1:00 PM,-41.8,-49.0,67,30.53,1.5,NE,8.1,-,N/A,,Partly Cloudy,40,2013-02-17 20:00:00
2:00 PM,-40.0,-49.0,60,30.54,1.5,NE,4.6,-,N/A,,Partly Cloudy,40,2013-02-17 21:00:00
2:38 PM,-9999,-9999,N/A,-9999,1.0,NE,5.8,-,N/A,,Clear,40,2013-02-17 21:38:00
3:00 PM,-40.0,-49.0,60,30.54,1.0,NE,6.9,-,N/A,,Clear,40,2013-02-17 22:00:00
4:00 PM,-41.8,-49.0,67,30.55,1.0,NE,4.6,-,N/A,,Partly Cloudy,50,2013-02-17 23:00:00
4:18 PM,-9999,-9999,N/A,-9999,0.6,NE,3.5,-,N/A,,Partly Cloudy,50,2013-02-17 23:18:00
5:00 PM,-42,-49,49,30.55,1,NE,5.8,,,,Mist,40,2013-02-18 00:00:00
5:00 PM,-41.8,-49.0,67,30.55,0.6,NE,5.8,-,N/A,,Partly Cloudy,40,2013-02-18 00:00:00
5:18 PM,-9999,-9999,N/A,-9999,1.5,NE,5.8,-,N/A,,Partly Cloudy,50,2013-02-18 00:18:00
6:00 PM,-41.8,-50.8,60,30.55,1.5,NE,5.8,-,N/A,,Partly Cloudy,40,2013-02-18 01:00:00
7:00 PM,-41.8,-50.8,60,30.56,1.5,NE,6.9,-,N/A,,Partly Cloudy,40,2013-02-18 02:00:00
8:00 PM,-41.8,-50.8,60,30.56,1.5,NE,5.8,-,N/A,,Partly Cloudy,50,2013-02-18 03:00:00
8:54 PM,-9999,-9999,N/A,-9999,1.0,ENE,5.8,-,N/A,,Partly Cloudy,70,2013-02-18 03:54:00
9:00 PM,-41.8,-50.8,60,30.56,1.0,ENE,5.8,-,N/A,,Partly Cloudy,70,2013-02-18 04:00:00
10:00 PM,-43.6,-50.8,67,30.58,1.0,ENE,5.8,-,N/A,,Partly Cloudy,60,2013-02-18 05:00:00
11:00 PM,-43,-50,49,30.58,1,ENE,5.8,,,,Mist,60,2013-02-18 06:00:00
11:00 PM,-41.8,-49.0,67,30.58,1.0,ENE,5.8,-,N/A,,Partly Cloudy,60,2013-02-18 06:00:00
11:34 PM,-9999,-9999,N/A,-9999,1.5,NE,5.8,-,N/A,,Partly Cloudy,50,2013-02-18 06:34:00